Preview of NWS' New Version of Forecast
This preview is not operational and should not be used for support decisions.

Regional Weather Roundup (RWR)

Issued by National Weather Service (NWS)

                            
000
ASUS45 KABQ 231201
RWRNM 
NEW MEXICO REGIONAL WEATHER ROUNDUP
NATIONAL WEATHER SERVICE ALBUQUERQUE NM
600 AM MDT MON SEP 23 2019

NOTE: "FAIR" MEANS FEW OR NO CLOUDS BELOW 12,000 FEET AGL WITH NO
       SIGNIFICANT WEATHER OR OBSTRUCTIONS TO VISION.

      THIS PRODUCT IS RELEASED AS TWO VERSIONS.  ONE VERSION NEAR
      THE TOP OF THE HOUR CONTAINING PRELIMINARY DATA FROM ALBUQUERQUE
      AND OTHER STATIONS.  A FINAL VERSION WITH ADDITIONAL DATA IS 
      ISSUED ABOUT 10 MINUTES AFTER THE HOUR.
 
NMZ501-503-504-510>518-231300-
NORTHWEST PLATEAU/NORTHCENTRAL MOUNTAINS
  
CITY           SKY/WX    TMP DP  RH WIND       PRES   REMARKS
FARMINGTON     FAIR      47  26  44 E9        30.18S                  
6HR MIN TEMP:  44; 6HR MAX TEMP:  56;                                

LOS ALAMOS     FAIR      55  15  20 CALM      30.30S                  
SANTA FE       FAIR      47  20  34 N12       30.25R                  
6HR MIN TEMP:  41; 6HR MAX TEMP:  54;                                

ANGEL FIRE     FAIR      18  13  80 CALM      30.39S                  

$$
NMZ402-403-502-505>509-231300-
WESTCENTRAL MOUNTAINS/SOUTHWEST MOUNTAINS
  
CITY           SKY/WX    TMP DP  RH WIND       PRES   REMARKS
GALLUP         CLOUDY    45  35  68 E6        30.26F                  
6HR MIN TEMP:  40; 6HR MAX TEMP:  47; 6HR PCP: TRACE;                

GRANTS         MOCLDY    42  29  60 NW7       30.29S                  
SILVER CITY    FAIR      56  49  77 NW5       30.20S                  

$$
NMZ407-409-411-412-231300-
SOUTHERN DESERTS
  
CITY           SKY/WX    TMP DP  RH WIND       PRES   REMARKS
DEMING         FAIR      62  55  77 SW3       30.15R                  
6HR MIN TEMP:  62; 6HR MAX TEMP:  70;                                

LAS CRUCES     FAIR      63  57  83 SW3       30.17R                  
HOLLOMAN AFB   FAIR      66  55  68 SE6       30.16R                  
ALAMOGORDO     FAIR      63  55  77 CALM      30.15R                  
T OR C         FAIR      61  42  49 W6        30.16R                  
6HR MIN TEMP:  61; 6HR MAX TEMP:  72;                                


$$
NMZ519>523-231300-
CENTRAL VALLEYS/CENTRAL HIGHLANDS
  
CITY           SKY/WX    TMP DP  RH WIND       PRES   REMARKS
ALBUQUERQUE    FAIR      56  23  27 N7        30.19S                  
6HR MIN TEMP:  56; 6HR MAX TEMP:  65;                                

DOUBLE EAGLE   CLEAR     46  27  46 CALM      30.22R                  
CLINES CORNERS FAIR      51  40  65 SW9       30.30R                  
6HR MIN TEMP:  48; 6HR MAX TEMP:  54;                                

BELEN          FAIR      47  20  33 NW6       30.20R                  
6HR MIN TEMP:  47; 6HR MAX TEMP:  59;                                

SOCORRO        FAIR      55  42  61 CALM      30.18R                  
6HR MIN TEMP:  54; 6HR MAX TEMP:  65;                                


$$
NMZ524>526-539-540-231300-
SOUTHCENTRAL MOUNTAINS
  
CITY           SKY/WX    TMP DP  RH WIND       PRES   REMARKS
RUIDOSO        FAIR      54  48  82 W7        30.31S                  

$$
NMZ527>531-231300-
NORTHEAST HIGHLANDS/NORTHEAST PLAINS
  
CITY           SKY/WX    TMP DP  RH WIND       PRES   REMARKS
LAS VEGAS      FAIR      50  19  29 W3        30.26R                  
6HR MIN TEMP:  41; 6HR MAX TEMP:  54;                                

RATON          FAIR      42  36  79 NE5       30.22S                  
6HR MIN TEMP:  38; 6HR MAX TEMP:  53;                                

CLAYTON        FAIR      53  51  93 SW6       30.17R                  
6HR MIN TEMP:  53; 6HR MAX TEMP:  57;                                


$$
NMZ532>537-231300-
EASTCENTRAL PLAINS
  
CITY           SKY/WX    TMP DP  RH WIND       PRES   REMARKS
TUCUMCARI      FAIR      56  52  86 N5        30.11R                  
6HR MIN TEMP:  56; 6HR MAX TEMP:  66;                                

CANNON AFB     FAIR      59  58  95 E5        30.16R                  
6HR MIN TEMP:  58; 6HR MAX TEMP:  62;                                

CLOVIS AIRPORT FAIR      57  55  93 E3        30.16R                  

$$
NMZ028-029-033-538-231300-
SOUTHEAST PLAINS
  
CITY           SKY/WX    TMP DP  RH WIND       PRES   REMARKS
ROSWELL        FAIR      64  50  60 VRB5      30.10R                  
6HR MIN TEMP:  62; 6HR MAX TEMP:  73;                                

ARTESIA        FAIR      63  61  94 SW5       30.12S                  
CARLSBAD       FAIR      64  61  90 NW5       30.08R                  
6HR MIN TEMP:  64; 6HR MAX TEMP:  69;                                



$$